TimePDT,TemperatureF,Dew PointF,Humidity,Sea Level PressureIn,VisibilityMPH,Wind Direction,Wind SpeedMPH,Gust SpeedMPH,PrecipitationIn,Events,Conditions,WindDirDegrees,DateUTC
12:56 AM,50.0,39.0,66,29.82,10.0,Calm,Calm,-,N/A,,Clear,0,2013-05-21 07:56:00
1:56 AM,53.1,36.0,52,29.78,10.0,Calm,Calm,-,N/A,,Clear,0,2013-05-21 08:56:00
2:56 AM,51.1,36.0,56,29.77,10.0,Calm,Calm,-,N/A,,Clear,0,2013-05-21 09:56:00
3:56 AM,46.0,37.0,71,29.76,10.0,Calm,Calm,-,N/A,,Clear,0,2013-05-21 10:56:00
4:56 AM,43.0,37.0,80,29.74,10.0,Calm,Calm,-,N/A,,Clear,0,2013-05-21 11:56:00
5:56 AM,44.1,37.0,76,29.74,10.0,Calm,Calm,-,N/A,,Clear,0,2013-05-21 12:56:00
6:56 AM,54.0,39.9,59,29.70,10.0,Calm,Calm,-,N/A,,Scattered Clouds,0,2013-05-21 13:56:00
7:56 AM,57.0,41.0,55,29.69,10.0,NW,4.6,-,N/A,,Mostly Cloudy,310,2013-05-21 14:56:00
8:56 AM,59.0,41.0,51,29.67,10.0,Calm,Calm,-,N/A,,Mostly Cloudy,0,2013-05-21 15:56:00
9:56 AM,53.1,39.9,61,29.71,10.0,Variable,4.6,-,0.00,,Overcast,0,2013-05-21 16:56:00
10:45 AM,51.8,39.2,62,29.74,10.0,WNW,8.1,-,0.00,,Overcast,300,2013-05-21 17:45:00
10:56 AM,50.0,39.9,68,29.73,10.0,Variable,4.6,-,0.00,,Overcast,0,2013-05-21 17:56:00
11:56 AM,45.0,39.9,82,29.78,10.0,Calm,Calm,-,0.00,Rain,Light Rain,0,2013-05-21 18:56:00
12:03 PM,44.6,39.2,81,29.78,10.0,Variable,3.5,-,0.00,,Overcast,0,2013-05-21 19:03:00
12:56 PM,42.1,39.0,89,29.78,9.0,Variable,4.6,-,0.02,Rain,Light Rain,0,2013-05-21 19:56:00
1:23 PM,39.2,37.4,93,29.78,1.8,Variable,5.8,-,0.02,Rain,Rain,0,2013-05-21 20:23:00
1:50 PM,39.2,37.4,93,29.79,2.5,Calm,Calm,-,0.11,Rain,Light Rain,0,2013-05-21 20:50:00
1:56 PM,39.9,37.9,93,29.79,5.0,SW,3.5,-,0.12,Rain,Light Rain,230,2013-05-21 20:56:00
2:07 PM,39.2,37.4,93,29.78,1.8,Calm,Calm,-,0.02,Rain,Rain,0,2013-05-21 21:07:00
2:13 PM,39.2,37.4,93,29.78,3.0,Calm,Calm,-,0.04,Rain,Light Rain,0,2013-05-21 21:13:00
2:26 PM,39.2,37.4,93,29.79,10.0,Calm,Calm,-,0.04,Rain,Light Rain,0,2013-05-21 21:26:00
2:56 PM,41.0,37.9,89,29.78,8.0,Calm,Calm,-,0.06,Rain,Light Rain,0,2013-05-21 21:56:00
3:03 PM,41.0,39.2,93,29.78,4.0,Calm,Calm,-,0.01,Rain,Light Rain,0,2013-05-21 22:03:00
3:16 PM,41.0,37.4,87,29.79,10.0,Calm,Calm,-,0.01,Rain,Light Rain,0,2013-05-21 22:16:00
3:38 PM,42.8,37.4,81,29.78,10.0,Calm,Calm,-,0.01,Rain,Light Rain,0,2013-05-21 22:38:00
3:56 PM,43.0,37.9,82,29.78,10.0,Calm,Calm,-,0.02,Rain,Light Rain,0,2013-05-21 22:56:00
4:11 PM,44.6,39.2,81,29.76,10.0,Calm,Calm,-,0.00,,Overcast,0,2013-05-21 23:11:00
4:24 PM,44.6,37.4,76,29.76,10.0,North,3.5,-,0.00,,Overcast,360,2013-05-21 23:24:00
4:56 PM,46.0,41.0,83,29.75,10.0,Calm,Calm,-,0.00,,Mostly Cloudy,0,2013-05-21 23:56:00
5:03 PM,46.4,39.2,76,29.74,10.0,Calm,Calm,-,N/A,,Scattered Clouds,0,2013-05-22 00:03:00
5:39 PM,46.4,39.2,76,29.74,10.0,Variable,3.5,-,N/A,,Mostly Cloudy,0,2013-05-22 00:39:00
5:56 PM,46.0,39.9,79,29.75,10.0,East,4.6,-,N/A,,Overcast,90,2013-05-22 00:56:00
6:24 PM,46.4,39.2,76,29.74,10.0,Calm,Calm,-,N/A,,Scattered Clouds,0,2013-05-22 01:24:00
6:56 PM,46.9,41.0,80,29.72,10.0,Calm,Calm,-,N/A,,Clear,0,2013-05-22 01:56:00
7:56 PM,44.1,41.0,89,29.74,10.0,Calm,Calm,-,N/A,,Mostly Cloudy,0,2013-05-22 02:56:00
8:21 PM,35.6,33.8,93,29.80,2.0,Variable,4.6,20.7,0.05,Rain,Heavy Rain,0,2013-05-22 03:21:00
8:29 PM,35.6,33.8,93,29.81,2.0,Variable,5.8,-,0.08,Rain,Heavy Rain,0,2013-05-22 03:29:00
8:45 PM,33.8,33.8,100,29.82,1.8,Calm,Calm,-,0.13,Snow,Light Snow,0,2013-05-22 03:45:00
8:56 PM,34.0,32.0,92,29.83,1.2,Calm,Calm,-,0.15,Snow,Light Snow,0,2013-05-22 03:56:00
9:11 PM,33.8,32.0,93,29.83,2.5,Calm,Calm,-,0.02,Snow,Light Snow,0,2013-05-22 04:11:00
9:22 PM,33.8,32.0,93,29.82,4.0,Calm,Calm,-,0.03,Rain,Light Rain,0,2013-05-22 04:22:00
9:45 PM,35.6,33.8,93,29.82,10.0,Calm,Calm,-,0.03,,Overcast,0,2013-05-22 04:45:00
9:56 PM,36.0,34.0,93,29.83,10.0,Variable,4.6,-,0.03,,Overcast,0,2013-05-22 04:56:00
10:43 PM,35.6,33.8,93,29.83,10.0,WSW,5.8,-,N/A,,Overcast,250,2013-05-22 05:43:00
10:56 PM,36.0,34.0,93,29.85,10.0,Variable,6.9,-,N/A,,Overcast,0,2013-05-22 05:56:00
11:23 PM,35.6,33.8,93,29.83,10.0,Variable,4.6,-,0.00,,Overcast,0,2013-05-22 06:23:00
11:43 PM,33.8,32.0,93,29.83,1.8,Calm,Calm,-,0.01,Snow,Light Snow,0,2013-05-22 06:43:00
11:56 PM,34.0,32.0,92,29.86,1.8,Calm,Calm,-,0.02,Snow,Light Snow,0,2013-05-22 06:56:00